Regional Weather Roundup
Issued by NWS

Home | Current Version | Previous Version | Text Only | Print | Product List | Glossary Off
Versions: 1 2 3 4 5 6 7 8 9 10 11 12 13 14 15 16 17 18 19 20 21 22 23 24 25 26 27 28 29 30 31 32 33 34 35 36 37 38 39 40 41 42 43 44 45 46 47 48 49 50

000
ASUS43 KOAX 141610
RWRNE

WEATHER ROUNDUP FOR NEBRASKA
NATIONAL WEATHER SERVICE OMAHA NE
1000 AM CST THU DEC 14 2017

NOTES: SATELLITE DATA IS BEING USED TO AUGMENT CLOUD COVER ABOVE
       12000 FEET.
       "FAIR" INDICATES FEW OR NO CLOUDS BELOW 12,000 FEET WITH NO
       SIGNIFICANT WEATHER AND/OR OBSTRUCTIONS TO VISIBILITY.


NEZ001>004-019>022-054>056-141700-
NEBRASKA PANHANDLE

CITY           SKY/WX    TMP DP  RH WIND       PRES   REMARKS
SCOTTSBLUFF    CLOUDY    36  22  56 N32G45    30.19R WCI  23
ALLIANCE       CLOUDY    36  21  54 NW30G41   30.12R WCI  23
CHADRON        CLOUDY    36  22  56 NW16G22   30.17R WCI  26
GORDON         CLOUDY    33  26  75 NW21G29   30.13R WCI  21
KIMBALL        FLURRIES  33  27  78 NW15G22   30.17R WCI  23
SIDNEY         CLOUDY    37  24  59 NW17G25   30.15R WCI  27
$$

NEZ057>060-069>072-079>082-141700-
SOUTHWEST NEBRASKA

CITY           SKY/WX    TMP DP  RH WIND       PRES   REMARKS
NORTH PLATTE   CLOUDY    38  26  62 W10       30.10R WCI  31
IMPERIAL       CLOUDY    38  24  57 NW13      30.13R WCI  30
LEXINGTON      CLOUDY    39  32  76 NW14      30.11R WCI  31
MCCOOK         PTSUNNY   39  28  64 W13       30.12R WCI  31
OGALLALA       CLOUDY    40  25  53 NW21G26   30.12R WCI  31
$$

NEZ005>010-023>029-035>040-094-141700-
NORTH CENTRAL NEBRASKA

CITY           SKY/WX    TMP DP  RH WIND       PRES   REMARKS
VALENTINE      LGT SNOW  35  32  88 NW17G30   30.09  FOG     WCI  25
AINSWORTH      LGT SNOW  33  33 100 NW17      30.07R VSB 1   WCI  22
BROKEN BOW     LGT RAIN  37  33  85 NW15      30.07R WCI  28
O`NEILL        LGT SNOW  33  33 100 NW5       30.05R WCI  28
ORD            LGT RAIN  35  34  96 NW9       30.06R WCI  28
THEDFORD       LGT SNOW  35  33  92 NW23G31   30.09R WCI  23
$$

NEZ041-046>049-061>064-073>077-083>087-141700-
SOUTH CENTRAL NEBRASKA

CITY           SKY/WX    TMP DP  RH WIND       PRES   REMARKS
GRAND ISLAND   CLOUDY    36  30  79 W10       30.08S WCI  28
AURORA         CLOUDY    35  28  75 W9        30.08S WCI  28
HASTINGS       CLOUDY    37  31  78 NW15      30.08S WCI  28
HEBRON         MOSUNNY   38  28  66 NW7       30.10S WCI  33
HOLDREGE       CLOUDY    39  32  76 NW15G23   30.09S WCI  30
KEARNEY        LGT RAIN  37  32  82 NW14      30.09S WCI  28
YORK           CLOUDY    36  28  75 CALM      30.08S
$$

NEZ011>018-030>034-042>045-141700-
NORTHEAST NEBRASKA

CITY           SKY/WX    TMP DP  RH WIND       PRES   REMARKS
NORFOLK        CLOUDY    35  26  69 NW8       30.03R WCI  29
ALBION         LGT SNOW  34  29  84 NW5       30.06R WCI  30
BLAIR          CLOUDY    35  28  76 CALM      30.06R
COLUMBUS       MOSUNNY   34  26  72 W7        30.08R WCI  28
FREMONT        CLOUDY    39  27  63 W10       30.07R WCI  32
TEKAMAH        CLOUDY    36  26  67 SW3       30.07R
WAYNE          MOSUNNY   36  27  69 NW8       30.05R WCI  29
$$

NEZ050>053-065>068-078-088>093-141700-
SOUTHEAST NEBRASKA

CITY           SKY/WX    TMP DP  RH WIND       PRES   REMARKS
LINCOLN        CLOUDY    38  26  62 W9        30.10R WCI  31
OMAHA EPPLEY   PTSUNNY   36  27  69 CALM      30.08R
BEATRICE       CLOUDY    37  28  67 NW9       30.09S WCI  31
FALLS CITY     CLOUDY    38  27  64 NW7       30.10R WCI  33
NEBRASKA CITY  CLOUDY    37  27  67 NW6       30.08S WCI  33
PLATTSMOUTH    MOSUNNY   37  28  71 CALM      30.07R
$$

NEZ044-045-051>053-067-141700-
OMAHA AREA

CITY           SKY/WX    TMP DP  RH WIND       PRES   REMARKS
OMAHA EPPLEY   PTSUNNY   36  27  69 CALM      30.08R
BLAIR          CLOUDY    35  28  76 CALM      30.06R
FREMONT        CLOUDY    39  27  63 W10       30.07R WCI  32
MILLARD        SUNNY     39  26  60 W6        30.08R WCI  35
OFFUTT AFB     CLOUDY    37  27  66 W5        30.07R WCI  33
PLATTSMOUTH    MOSUNNY   37  28  71 CALM      30.07R
WAHOO          PTSUNNY   37  26  64 W9        30.07S WCI  31
$$




USA.gov is the U.S. government's official web portal to all federal, state and local government web resources and services.